Regional Weather Roundup
Issued by NWS

Home | Current Version | Previous Version | Text Only | Print | Product List | Glossary Off
Versions: 1 2 3 4 5 6 7 8 9 10 11 12 13 14 15 16 17 18 19 20 21 22 23 24 25 26 27 28 29 30 31 32 33 34 35 36 37 38 39 40 41 42 43 44 45 46 47 48 49 50

565
ASUS43 KDTX 220901
RWRMI
MICHIGAN HOURLY REGIONAL WEATHER ROUNDUP
NATIONAL WEATHER SERVICE DETROIT/PONTIAC MI
500 AM EDT SUN OCT 22 2017

NOTE: "FAIR" INDICATES FEW OR NO CLOUDS BELOW 12,000 FEET WITH NO
SIGNIFICANT WEATHER AND/OR OBSTRUCTION TO VISIBILITY.

MIZ047>049-052>055-059>063-066>070-074>076-081>083-221000-
SOUTHEAST LOWER MICHIGAN

CITY           SKY/WX    TMP DP  RH WIND       PRES   REMARKS
ADRIAN         PTCLDY    53  46  77 CALM      30.16S
ALMA           CLOUDY    58  45  62 S5        30.09F
ANN ARBOR      PTCLDY    44  43  96 CALM      30.15F
BAD AXE        CLOUDY    59  47  63 S8        30.14S
CARO           CLOUDY    61  46  57 S5        30.12S
DETROIT CITY   PTCLDY    57  53  86 S5        30.18R
DETROIT        MOCLDY    56  48  74 SE3       30.18R
FLINT          CLOUDY    60  46  59 S9        30.13F
GROSSE ILE     CLOUDY    59  55  85 S5        30.17S
HILLSDALE      CLOUDY    55  45  67 S8        30.13S
HOWELL         CLEAR     54  47  78 SE7       30.13F

CITY           SKY/WX    TMP DP  RH WIND       PRES   REMARKS
JACKSON        CLOUDY    60  46  59 SE7       30.13S
LAMBERTVILLE   CLOUDY    56  48  72 SE3       30.16S
LANSING        CLOUDY    63  45  51 S12       30.11F
LAPEER         FAIR      58  46  64 S6        30.16R
MASON          CLOUDY    59  47  64 S7        30.12F
MONROE         CLOUDY    56  48  75 CALM      30.16S
MT. CLEMENS    CLOUDY    54  54 100 SE3       30.16S
PONTIAC        CLOUDY    51  47  86 SE3       30.16R
PORT HOPE        N/A     62  48  60 VRB5      30.11S
PORT HURON     PTCLDY    52  50  93 CALM      30.19R
TRI CITIES     PTCLDY    60  49  66 S7        30.11S
MIDLAND        FAIR      61  46  58 S6        30.08F
TROY           CLOUDY    55  49  81 S3        30.19S
SAGINAW HB     PTCLDY    61  46  59 S9        30.10S
$$
MIZ043>046-050>051-056>058-064>065-071>073-077>080-221000-
SOUTHWEST LOWER MICHIGAN

CITY           SKY/WX    TMP DP  RH WIND       PRES   REMARKS
BATTLE CREEK   CLEAR     59  47  64 S9        30.09F
BENTON HARBOR  MOCLDY    62  49  62 SE12      30.02F
BIG RAPIDS     PTCLDY    57  47  67 SE5       30.04F
COLDWATER      CLOUDY    59  45  59 SE8       30.10F
FREMONT        FAIR      61  51  70 SE3       30.02F
HOLLAND        CLEAR     65  50  58 S12       30.03F
GRAND RAPIDS   CLEAR     61  50  67 S9        30.05F
IONIA          FAIR      59  46  63 SE9       30.07F
KALAMAZOO      CLEAR     62  45  53 S9        30.07F
LUDINGTON      MOCLDY    66  51  58 S12G20    29.97F
MARSHALL       CLOUDY    59  46  63 SE6       30.10F
MOUNT PLEASANT CLOUDY    60  46  59 SE6       30.07F
MUSKEGON       PTCLDY    68  51  54 S16G22    30.01F
SOUTH HAVEN    PTCLDY    64  49  59 S6        30.02F
$$
MIZ016>042-221000-
NORTHERN LOWER MICHIGAN

CITY           SKY/WX    TMP DP  RH WIND       PRES   REMARKS
ALPENA         PTCLDY    59  52  77 S6        30.07S
BEAVER ISLAND  CLEAR     64  54  69 S8        29.95F
BELLAIRE       MOCLDY    64  50  60 S9        30.00F
CADILLAC       CLEAR     61  48  62 S7        30.03F
CHARLEVOIX     PTCLDY    65  52  61 S10       30.00F
FRANKFORT      MOCLDY    66  55  65 S10       29.96F
GAYLORD        CLEAR     59  47  64 S12       30.05S
GRAYLING       CLEAR     59  46  63 S7        30.06F
HARBOR SPRINGS PTCLDY    65  50  59 SW6       30.00S
HOUGHTON LAKE  CLEAR     58  46  64 S7        30.07F
MANISTEE       PTCLDY    64  54  69 SE5       29.97F
OSCODA         CLOUDY    60  51  72 S9        30.10R
PELLSTON       PTCLDY    65  52  62 S9        30.00F
ROGERS CITY    CLOUDY    62  48  62 S5        30.06R
TRAVERSE CITY  CLEAR     65  52  62 VRB6      29.98F
$$
MIZ007>008-015-221000-
EASTERN UPPER MICHIGAN

CITY           SKY/WX    TMP DP  RH WIND       PRES   REMARKS
KINROSS        CLEAR     57  49  74 SE9       30.01F
MACKINAC ISLAN MOCLDY    66  50  55 S10       29.99F
NEWBERRY       PTCLDY    60  55  83 S10       29.94F
S. S. MARIE    CLOUDY    60  50  69 E5        30.00F
MUNISING         N/A     63  58  83 S10G24    29.85F
$$
MIZ004>006-011>014-085-221000-
CENTRAL UPPER MICHIGAN

CITY           SKY/WX    TMP DP  RH WIND       PRES   REMARKS
MANISTIQUE     CLOUDY    61  55  81 S13G18    29.91F
ESCANABA       CLOUDY    60  57  89 S13G18    29.87F
MENOMINEE      PTCLDY    61  56  83 S8        29.88F
SAWYER-GWINN   CLOUDY    60  56  88 S12       29.84F
$$
MIZ001>003-009>011-084-221000-
WESTERN UPPER MICHIGAN

CITY           SKY/WX    TMP DP  RH WIND       PRES   REMARKS
IRON MOUNTAIN  PTCLDY    62  55  77 S10       29.82F
HOUGHTON       CLOUDY    65  56  72 S14       29.73F
COPPER HARBOR    N/A     62  55  77 SW8G17    29.73F
IRONWOOD       LGT RAIN  55  52  89 W13       29.75S
$$

ABBREVIATIONS USED IN REMARKS
   TC - TEMPERATURE IN CELSIUS
  WCI - WIND CHILL INDEX
   HX - HEAT INDEX
  VSB - VISIBILITY





USA.gov is the U.S. government's official web portal to all federal, state and local government web resources and services.